#timestamp,LO_Frequency,Hit,StdDev 
1570222815.0,286047004.3,N
1570222815.9,286047004.3,N
1570222835.8,286047001.6,N
1570222855.6,286047002.7,N
1570222875.4,286047005.1,N
1570222895.3,286047006.9,N
1570222915.1,286047007.6,N
1570222935.8,286047004.6,N
1570222955.7,286047005.8,N
1570222975.5,286047003.3,N
1570222995.4,286047005.2,N
1570223015.2,286047001.7,N
1570223035.0,286047002.7,N
1570223035.9,286047002.7,N
1570223055.8,286047001.6,N
1570223075.6,286047005.8,N
1570223095.5,286047008.7,Y
1570223115.3,286047004.3,P
1570223135.1,286047004.8,P
1570223155.9,286047004.4,P
1570223175.7,286047003.4,Y
1570223195.5,286046997.4,P
1570223215.4,286046995.7,N
1570223235.2,286046998.9,N
1570223255.1,286046998.4,N
1570223256.0,286046998.4,N
1570223275.8,286047002.7,N
1570223295.6,286047003.6,N
1570223315.5,286047004.2,N
1570223335.3,286047005.3,N
1570223355.1,286047001.2,N
1570223375.9,286046997.5,N
1570223395.7,286046995.1,N
1570223415.6,286046993.9,N
1570223435.4,286046993.4,N
1570223455.2,286046998.0,N
1570223475.1,286046996.7,N
1570223476.0,286046996.7,N
1570223495.8,286046992.2,N
1570223515.6,286046988.9,N
1570223535.5,286046990.9,N
1570223555.3,286046989.2,N
1570223575.2,286046989.1,N
1570223595.9,286046988.6,N
1570223615.7,286046990.9,N
1570223635.6,286046992.7,N
1570223655.4,286046991.7,N
1570223675.2,286046991.3,N
1570223695.1,286046986.1,N
1570223696.0,286046986.1,N
1570223715.8,286046984.9,N
1570223735.7,286046986.5,N
1570223755.5,286046986.7,N
1570223775.3,286046980.6,Y
1570223795.2,286046987.6,P
1570223815.0,286046987.0,P
1570223815.9,286046987.0,P
1570223835.8,286046990.7,Y
1570223855.6,286047003.4,P
1570223875.4,286047005.4,N
1570223895.3,286047005.2,N
1570223915.1,286047009.1,N
1570223935.8,286047007.7,N
1570223955.7,286047010.2,N
1570223975.5,286047008.1,N
1570223995.4,286047012.4,N
1570224015.2,286047009.3,N
1570224035.0,286047011.5,N
1570224035.9,286047011.5,N
1570224055.8,286047013.1,N
1570224075.6,286047013.0,N
1570224095.4,286047013.7,N
1570224115.3,286047011.4,N
1570224135.1,286047011.6,N
1570224155.9,286047009.9,N
1570224175.7,286047008.2,N
1570224195.5,286047006.1,N
1570224215.4,286047007.7,N
1570224235.2,286047008.8,N
1570224255.0,286047004.6,N
1570224255.9,286047004.6,N
1570224275.8,286047003.7,N
1570224295.6,286047001.7,N
1570224315.5,286047003.2,N
1570224335.3,286047004.8,N
1570224355.1,286047006.6,N
1570224375.9,286047009.1,N
1570224395.7,286047006.1,N
1570224415.5,286047008.5,N
1570224435.4,286047007.9,N
1570224455.2,286047010.7,Y
1570224475.1,286047003.3,P
1570224476.0,286047003.3,N
1570224495.8,286047001.8,N
1570224515.6,286047003.8,N
1570224535.5,286046998.7,N
1570224555.3,286047000.6,N
1570224575.1,286046999.7,N
1570224595.9,286047003.1,N
1570224615.7,286047005.7,N
1570224635.6,286047006.6,N
1570224655.4,286047008.1,N
1570224675.2,286047006.2,N
1570224695.1,286047005.0,N
1570224696.0,286047005.0,N
1570224715.8,286047001.6,N
1570224735.7,286047004.4,N
1570224755.5,286047005.6,N
1570224775.3,286047003.2,N
1570224795.2,286047003.9,N
1570224815.0,286047002.1,N
1570224815.9,286047002.1,N
1570224835.7,286046998.7,N
1570224855.6,286046998.6,N
1570224875.4,286046999.3,N
1570224895.3,286046996.9,N
1570224915.1,286046999.6,N
1570224935.8,286046998.8,N
1570224955.7,286046998.5,N
1570224975.5,286047000.9,N
1570224995.4,286047000.3,N
1570225015.2,286046996.5,N
1570225035.0,286046997.8,N
1570225035.9,286046997.8,N
1570225055.8,286047001.1,N
1570225075.6,286046998.4,N
1570225095.4,286046997.4,N
1570225115.3,286046997.9,N
1570225135.1,286046995.0,N
1570225155.9,286046998.6,N
1570225175.7,286046998.3,N
1570225195.5,286047001.0,N
1570225215.4,286047000.3,N
1570225235.2,286046999.8,N
1570225255.1,286046998.2,N
1570225256.0,286046998.2,N
1570225275.8,286046998.6,N
1570225295.6,286046998.8,N
1570225315.5,286046998.2,N
1570225335.3,286047001.8,N
1570225355.2,286047001.7,N
1570225375.9,286047003.7,N
1570225395.7,286047003.5,N
1570225415.6,286047003.3,N
1570225435.4,286047005.4,N
1570225455.2,286047003.4,N
1570225475.1,286047005.7,N
1570225476.0,286047005.7,N
1570225495.8,286047005.6,N
1570225515.7,286047003.3,N
1570225535.5,286047005.0,N
1570225555.3,286047006.8,N
1570225575.2,286047004.5,N
1570225595.0,286047004.5,N
1570225595.9,286047004.5,N
1570225615.8,286047005.8,N
1570225635.6,286047002.9,N
1570225655.4,286047004.3,N
1570225675.3,286047003.4,N
1570225695.1,286047003.2,N
1570225715.8,286047001.9,N
1570225735.7,286046999.7,N
1570225755.5,286047000.3,N
1570225775.4,286047002.3,N
1570225795.2,286047001.7,N
1570225815.0,286047002.8,N
1570225815.9,286047002.8,N
1570225835.8,286046999.7,N
1570225855.6,286047000.4,N
1570225875.5,286047000.6,N
1570225895.3,286047002.8,N
1570225915.1,286047004.3,N
1570225935.9,286047006.8,Y
1570225955.7,286046999.9,P
1570225975.6,286046999.5,N
1570225995.4,286046998.7,N
1570226015.2,286046994.9,N
1570226035.1,286046993.8,N
1570226036.0,286046993.8,N
1570226055.8,286046995.5,N
1570226075.6,286046994.8,N
1570226095.5,286046992.6,N
1570226115.3,286046993.8,N
1570226135.2,286046994.3,N
1570226155.9,286046993.3,N
1570226175.7,286046990.5,Y
1570226195.6,286046990.5,P
1570226215.4,286046996.4,N
1570226235.3,286046993.7,N
1570226255.1,286046996.2,N
1570226256.0,286046996.2,N
1570226275.8,286046992.5,Y
1570226295.7,286047000.7,P
1570226315.5,286046998.6,N
1570226335.3,286047000.5,N
1570226355.2,286047001.7,N
1570226375.0,286047001.2,N
1570226375.9,286047001.2,N
1570226395.8,286046996.6,N
